Voltar ao catálogo

STARLINK-5599

AtivoComunicaçõesVLEO
NORAD 55766·PAYLOAD·🇺🇸 United States

Lançado Mar 3, 2023 de Vandenberg Space Force Base

Loading…

Próximas Passagens (próximas 24 horas)

TLE

AtualizadoSource: CelesTrak SupGP

Época: Sep 15, 2026, 01:33 UTC

1 55766C 23028AB  26258.06506944  .00021892  00000+0  18350-2 0  2589
2 55766  69.9998 106.9819 0002661 277.5410 295.0943 14.98313487    17

Acompanhe STARLINK-5599 em tempo real com AllMySat

Download on the App Store